Radiation Dose at Monitoring Post of Fukushima Daini Nuclear Power Station
Date,Time,MP-1(microSv/h),MP-2(microSv/h),MP-3(microSv/h),MP-4(microSv/h),MP-5(microSv/h),MP-6(microSv/h),MP-7(microSv/h),Wind Direction,Wind Velocity(m/s),Rain
2014/10/10,00:00,0.626,0.433,0.664,0.603,0.597,0.273,0.240,south-southwest,10.6,No
2014/10/10,00:10,0.626,0.434,0.664,0.600,0.597,0.274,0.241,south-southwest,10.8,No
2014/10/10,00:20,0.625,0.434,0.665,0.603,0.598,0.273,0.240,south-southwest,10.9,No
2014/10/10,00:30,0.626,0.434,0.666,0.604,0.597,0.274,0.242,south-southwest,9.3,No
2014/10/10,00:40,0.625,0.435,0.665,0.602,0.596,0.274,0.239,south-southwest,9.3,No
2014/10/10,00:50,0.625,0.435,0.665,0.604,0.597,0.274,0.242,south-southwest,9.2,No
2014/10/10,01:00,0.625,0.434,0.666,0.602,0.598,0.274,0.240,south-southwest,10.4,No
2014/10/10,01:10,0.624,0.434,0.667,0.604,0.596,0.274,0.241,south-southwest,10.7,No
2014/10/10,01:20,0.623,0.436,0.667,0.605,0.598,0.272,0.240,south-southwest,9.9,No
2014/10/10,01:30,0.625,0.435,0.667,0.603,0.597,0.273,0.241,south-southwest,10.4,No
2014/10/10,01:40,0.625,0.436,0.665,0.604,0.598,0.275,0.241,south-southwest,9.8,No
2014/10/10,01:50,0.625,0.433,0.665,0.604,0.599,0.273,0.241,south-southwest,9.7,No
2014/10/10,02:00,0.626,0.435,0.665,0.604,0.599,0.273,0.240,south-southwest,8.5,No
2014/10/10,02:10,0.626,0.434,0.665,0.604,0.599,0.273,0.241,south-southwest,9.2,No
2014/10/10,02:20,0.626,0.435,0.665,0.604,0.597,0.274,0.241,south-southwest,10.1,No
2014/10/10,02:30,0.624,0.435,0.667,0.604,0.599,0.274,0.240,south-southwest,9.9,No
2014/10/10,02:40,0.624,0.436,0.666,0.603,0.598,0.275,0.240,southwest,10.9,No
2014/10/10,02:50,0.625,0.434,0.666,0.604,0.597,0.274,0.241,south-southwest,10.6,No
2014/10/10,03:00,0.624,0.435,0.666,0.604,0.598,0.273,0.240,south-southwest,10.8,No
2014/10/10,03:10,0.625,0.435,0.666,0.605,0.597,0.274,0.240,south-southwest,9.8,No
2014/10/10,03:20,0.625,0.435,0.665,0.604,0.598,0.273,0.242,south-southwest,8.6,No
2014/10/10,03:30,0.625,0.434,0.667,0.603,0.597,0.275,0.240,south-southwest,8.3,No
2014/10/10,03:40,0.624,0.435,0.666,0.603,0.597,0.274,0.241,south-southwest,8.3,No
2014/10/10,03:50,0.625,0.433,0.667,0.606,0.599,0.274,0.240,south-southwest,7.8,No
2014/10/10,04:00,0.624,0.434,0.667,0.604,0.596,0.273,0.241,south-southwest,8.6,No
2014/10/10,04:10,0.624,0.434,0.667,0.603,0.597,0.274,0.240,southwest,7.6,No
2014/10/10,04:20,0.627,0.434,0.665,0.604,0.598,0.274,0.242,southwest,6.9,No
2014/10/10,04:30,0.625,0.435,0.666,0.605,0.598,0.273,0.240,southwest,6.1,No
2014/10/10,04:40,0.625,0.432,0.666,0.604,0.596,0.273,0.240,southwest,6.5,No
2014/10/10,04:50,0.624,0.434,0.667,0.604,0.597,0.273,0.240,southwest,8.8,No
2014/10/10,05:00,0.625,0.433,0.665,0.604,0.596,0.274,0.240,southwest,9.8,No
2014/10/10,05:10,0.625,0.434,0.666,0.604,0.597,0.274,0.241,southwest,12.0,No
2014/10/10,05:20,0.625,0.435,0.667,0.604,0.596,0.273,0.240,south-southwest,10.2,No
2014/10/10,05:30,0.626,0.435,0.667,0.604,0.599,0.275,0.241,south-southwest,9.2,No
2014/10/10,05:40,0.624,0.435,0.666,0.603,0.597,0.274,0.240,south-southwest,10.2,No
2014/10/10,05:50,0.625,0.435,0.667,0.603,0.597,0.273,0.241,south-southwest,9.7,No
2014/10/10,06:00,0.625,0.436,0.666,0.605,0.596,0.273,0.241,south-southwest,8.1,No
2014/10/10,06:10,0.624,0.434,0.666,0.605,0.598,0.275,0.241,south-southwest,9.5,No
2014/10/10,06:20,0.625,0.435,0.667,0.605,0.598,0.275,0.241,south-southwest,8.9,No
2014/10/10,06:30,0.626,0.435,0.667,0.605,0.597,0.274,0.240,south-southwest,8.1,No
2014/10/10,06:40,0.625,0.435,0.667,0.606,0.596,0.274,0.241,south-southwest,6.9,No
2014/10/10,06:50,0.625,0.434,0.665,0.605,0.596,0.272,0.241,south-southwest,6.1,No
2014/10/10,07:00,0.625,0.435,0.668,0.604,0.597,0.275,0.241,south-southwest,6.4,No
2014/10/10,07:10,0.627,0.435,0.664,0.604,0.599,0.273,0.238,south-southwest,6.7,No
2014/10/10,07:20,0.626,0.435,0.667,0.605,0.598,0.274,0.242,south-southwest,6.7,No
2014/10/10,07:30,0.624,0.435,0.667,0.606,0.598,0.275,0.241,south-southwest,7.5,No
2014/10/10,07:40,0.627,0.435,0.668,0.608,0.599,0.274,0.238,south-southwest,7.6,No
2014/10/10,07:50,0.626,0.435,0.665,0.605,0.598,0.275,0.238,south-southwest,8.3,No
2014/10/10,08:00,0.628,0.436,0.666,0.606,0.597,0.273,0.239,south-southwest,7.0,No
2014/10/10,08:10,0.626,0.436,0.665,0.605,0.597,0.276,0.240,south-southwest,7.1,No
2014/10/10,08:20,0.627,0.435,0.667,0.609,0.598,0.274,0.238,south-southwest,6.1,No
2014/10/10,08:30,0.627,0.438,0.668,0.607,0.598,0.274,0.237,south,6.6,No
2014/10/10,08:40,0.628,0.438,0.667,0.610,0.599,0.273,0.239,south-southwest,7.4,No
2014/10/10,08:50,0.626,0.438,0.667,0.610,0.600,0.273,0.237,south,7.1,No
2014/10/10,09:00,0.629,0.440,0.670,0.610,0.599,0.274,0.238,south,6.3,No
2014/10/10,09:10,0.627,0.440,0.667,0.612,0.600,0.274,0.240,south,7.5,No
2014/10/10,09:20,0.629,0.440,0.669,0.612,0.600,0.273,0.239,south,6.7,No
2014/10/10,09:30,0.630,0.440,0.669,0.614,0.601,0.272,0.242,south-southwest,7.2,No
2014/10/10,09:40,0.631,0.442,0.669,0.617,0.603,0.272,0.242,south-southwest,7.8,No
2014/10/10,09:50,0.631,0.444,0.669,0.619,0.603,0.274,0.241,south-southwest,7.6,No
2014/10/10,10:00,0.635,0.444,0.669,0.621,0.603,0.274,0.240,south-southwest,6.8,No
2014/10/10,10:10,0.638,0.442,0.668,0.622,0.604,0.274,0.239,south-southwest,6.4,No
2014/10/10,10:20,0.634,0.443,0.668,0.623,0.603,0.278,0.240,south-southwest,5.1,No
2014/10/10,10:30,0.635,0.442,0.668,0.622,0.605,0.275,0.240,south-southwest,5.4,No
2014/10/10,10:40,0.636,0.440,0.672,0.620,0.607,0.274,0.243,south,6.4,No
2014/10/10,10:50,0.636,0.440,0.670,0.621,0.604,0.275,0.241,south-southwest,5.8,No
2014/10/10,11:00,0.638,0.441,0.669,0.621,0.605,0.275,0.238,south-southwest,5.3,No
2014/10/10,11:10,0.637,0.441,0.667,0.623,0.605,0.275,0.239,south-southwest,5.5,No
2014/10/10,11:20,0.638,0.441,0.672,0.622,0.604,0.273,0.239,south-southwest,3.0,No
2014/10/10,11:30,0.640,0.443,0.671,0.623,0.604,0.272,0.240,southwest,3.1,No
2014/10/10,11:40,0.639,0.442,0.673,0.622,0.605,0.274,0.240,southwest,3.3,No
2014/10/10,11:50,0.639,0.442,0.673,0.621,0.605,0.274,0.240,southwest,2.7,No
2014/10/10,12:00,0.636,0.443,0.672,0.621,0.604,0.275,0.240,west-southwest,2.2,No
2014/10/10,12:10,0.642,0.442,0.675,0.620,0.606,0.274,0.242,west-southwest,1.1,No
2014/10/10,12:20,0.640,0.442,0.677,0.622,0.604,0.274,0.240,south-southwest,2.4,No
2014/10/10,12:30,0.637,0.443,0.677,0.623,0.602,0.276,0.240,west-northwest,2.8,No
2014/10/10,12:40,0.639,0.445,0.675,0.622,0.604,0.276,0.240,west-northwest,4.5,No
2014/10/10,12:50,0.638,0.442,0.677,0.626,0.604,0.276,0.242,west-northwest,5.0,No
2014/10/10,13:00,0.638,0.443,0.677,0.628,0.604,0.275,0.242,west-northwest,4.8,No
2014/10/10,13:10,0.637,0.445,0.676,0.624,0.604,0.276,0.241,west-northwest,6.1,No
2014/10/10,13:20,0.638,0.445,0.677,0.627,0.605,0.275,0.243,west,5.3,No
2014/10/10,13:30,0.637,0.444,0.678,0.629,0.604,0.276,0.243,west,5.7,No
2014/10/10,13:40,0.637,0.444,0.678,0.626,0.605,0.276,0.243,west,6.6,No
2014/10/10,13:50,0.636,0.445,0.676,0.626,0.606,0.276,0.242,west,5.4,No
2014/10/10,14:00,0.637,0.445,0.674,0.625,0.604,0.274,0.243,west,5.2,No
2014/10/10,14:10,0.639,0.445,0.678,0.625,0.603,0.275,0.241,west,5.2,No
2014/10/10,14:20,0.638,0.444,0.675,0.625,0.604,0.276,0.241,west-northwest,4.0,No
2014/10/10,14:30,0.637,0.444,0.674,0.624,0.603,0.275,0.241,west-northwest,4.5,No
2014/10/10,14:40,0.635,0.446,0.675,0.626,0.603,0.275,0.240,west-northwest,6.4,No
2014/10/10,14:50,0.638,0.444,0.672,0.624,0.603,0.275,0.243,west-northwest,5.6,No
2014/10/10,15:00,0.639,0.445,0.673,0.622,0.604,0.276,0.242,west,5.6,No
2014/10/10,15:10,0.637,0.443,0.674,0.623,0.601,0.274,0.242,west-northwest,4.7,No
2014/10/10,15:20,0.636,0.443,0.671,0.619,0.602,0.274,0.240,west-northwest,4.2,No
2014/10/10,15:30,0.638,0.442,0.675,0.620,0.601,0.275,0.242,west-northwest,4.9,No
2014/10/10,15:40,0.637,0.443,0.672,0.620,0.600,0.274,0.244,west-northwest,6.1,No
2014/10/10,15:50,0.637,0.442,0.673,0.619,0.600,0.276,0.242,west-northwest,5.4,No
2014/10/10,16:00,0.636,0.442,0.674,0.618,0.600,0.274,0.241,west-northwest,5.8,No
2014/10/10,16:10,0.639,0.441,0.673,0.621,0.601,0.274,0.244,west-northwest,5.3,No
2014/10/10,16:20,0.638,0.442,0.672,0.620,0.601,0.276,0.242,west,4.8,No
2014/10/10,16:30,0.637,0.442,0.671,0.620,0.601,0.275,0.242,west-northwest,5.5,No
2014/10/10,16:40,0.639,0.443,0.672,0.620,0.603,0.274,0.242,west,6.8,No
2014/10/10,16:50,0.638,0.442,0.672,0.621,0.604,0.275,0.241,west,6.5,No
2014/10/10,17:00,0.636,0.443,0.673,0.620,0.603,0.276,0.242,west,8.1,No
2014/10/10,17:10,0.638,0.442,0.673,0.616,0.603,0.275,0.242,west,7.0,No
2014/10/10,17:20,0.639,0.441,0.674,0.617,0.602,0.275,0.242,west,8.2,No
2014/10/10,17:30,0.637,0.441,0.670,0.618,0.600,0.275,0.243,west,8.1,No
2014/10/10,17:40,0.635,0.440,0.671,0.618,0.600,0.275,0.243,west,7.8,No
2014/10/10,17:50,0.636,0.441,0.672,0.617,0.603,0.276,0.241,west,7.9,No
2014/10/10,18:00,0.637,0.440,0.672,0.617,0.602,0.274,0.244,west,7.8,No
2014/10/10,18:10,0.638,0.440,0.672,0.616,0.602,0.276,0.243,west,7.1,No
2014/10/10,18:20,0.637,0.441,0.674,0.618,0.601,0.275,0.242,west-northwest,6.1,No
2014/10/10,18:30,0.634,0.441,0.673,0.618,0.601,0.277,0.244,west-northwest,6.1,No
2014/10/10,18:40,0.634,0.442,0.671,0.616,0.602,0.279,0.242,west-northwest,5.4,No
2014/10/10,18:50,0.636,0.441,0.672,0.613,0.601,0.274,0.243,northwest,3.5,No
2014/10/10,19:00,0.636,0.440,0.671,0.613,0.600,0.276,0.242,north,4.3,No
2014/10/10,19:10,0.632,0.439,0.672,0.614,0.601,0.276,0.244,north,3.9,No
2014/10/10,19:20,0.633,0.439,0.672,0.612,0.599,0.277,0.243,north-northwest,1.9,No
2014/10/10,19:30,0.633,0.439,0.670,0.611,0.601,0.276,0.244,north-northeast,3.9,No
2014/10/10,19:40,0.629,0.439,0.671,0.612,0.599,0.278,0.243,north,3.7,No
2014/10/10,19:50,0.631,0.438,0.672,0.612,0.600,0.274,0.244,north-northwest,2.8,No
2014/10/10,20:00,0.630,0.439,0.672,0.610,0.600,0.278,0.243,north-northwest,1.7,No
2014/10/10,20:10,0.631,0.440,0.670,0.611,0.599,0.276,0.243,northwest,1.2,No
2014/10/10,20:20,0.628,0.437,0.670,0.610,0.598,0.276,0.243,north-northwest,1.8,No
2014/10/10,20:30,0.630,0.437,0.670,0.608,0.598,0.275,0.244,north-northwest,1.5,No
2014/10/10,20:40,0.629,0.439,0.669,0.609,0.598,0.276,0.242,northwest,1.8,No
2014/10/10,20:50,0.626,0.437,0.668,0.608,0.599,0.276,0.245,north-northwest,2.5,No
2014/10/10,21:00,0.629,0.438,0.669,0.607,0.599,0.278,0.243,north,2.6,No
2014/10/10,21:10,0.628,0.438,0.670,0.606,0.597,0.276,0.243,north-northwest,2.5,No
2014/10/10,21:20,0.630,0.438,0.669,0.607,0.597,0.276,0.244,north-northwest,2.7,No
2014/10/10,21:30,0.627,0.437,0.668,0.607,0.598,0.275,0.244,northwest,2.5,No
2014/10/10,21:40,0.626,0.437,0.670,0.608,0.599,0.277,0.245,north-northwest,3.1,No
2014/10/10,21:50,0.627,0.438,0.669,0.609,0.599,0.276,0.244,north-northwest,3.1,No
2014/10/10,22:00,0.628,0.437,0.671,0.609,0.598,0.277,0.245,north-northwest,5.6,No
2014/10/10,22:10,0.629,0.438,0.670,0.609,0.598,0.276,0.243,north-northwest,5.8,No
2014/10/10,22:20,0.629,0.438,0.670,0.608,0.600,0.278,0.245,north-northwest,5.3,No
2014/10/10,22:30,0.627,0.438,0.670,0.608,0.599,0.276,0.243,north,5.6,No
2014/10/10,22:40,0.627,0.440,0.669,0.606,0.599,0.277,0.243,north-northwest,4.9,No
2014/10/10,22:50,0.629,0.438,0.669,0.607,0.602,0.276,0.244,north-northwest,4.7,No
2014/10/10,23:00,0.629,0.438,0.670,0.607,0.598,0.277,0.244,north-northwest,5.2,No
2014/10/10,23:10,0.627,0.438,0.670,0.608,0.600,0.275,0.244,north,5.4,No
2014/10/10,23:20,0.629,0.439,0.671,0.608,0.600,0.276,0.244,north-northwest,5.2,No
2014/10/10,23:30,0.629,0.439,0.670,0.607,0.599,0.277,0.243,north-northwest,5.9,No
2014/10/10,23:40,0.630,0.438,0.671,0.607,0.598,0.276,0.244,north-northwest,5.9,No
2014/10/10,23:50,0.628,0.438,0.670,0.606,0.600,0.277,0.244,north,6.5,No
